| time (UTC) | temp F | wind direction | speed MPH | gust MPH | rain 1hr in | rain 24hr in | rain mn in | humidity % | barometer mb |
| 20260831214518 | 73 | 248 | 1.0 | 4.0 | 0.00 | 0.38 | 0.38 | 98 | 1016.8 |
| 20260831213011 | 73 | 243 | 0.0 | 3.0 | 0.00 | 0.38 | 0.38 | 98 | 1016.9 |
| 20260831211507 | 73 | 220 | 0.0 | 3.0 | 0.00 | 0.38 | 0.38 | 98 | 1016.7 |
| 20260831210003 | 72 | 221 | 0.0 | 3.0 | 0.00 | 0.38 | 0.38 | 98 | 1016.6 |
| 20260831204559 | 72 | 219 | 0.0 | 0.0 | 0.00 | 0.38 | 0.38 | 98 | 1016.3 |
| 20260831203103 | 72 | 217 | 0.0 | 2.0 | 0.00 | 0.38 | 0.38 | 98 | 1016.6 |
| 20260831201554 | 72 | 273 | 0.0 | 3.0 | 0.01 | 0.38 | 0.38 | 98 | 1016.8 |
| 20260831200052 | 72 | 339 | 0.0 | 4.0 | 0.02 | 0.38 | 0.38 | 98 | 1016.8 |
| 20260831194544 | 71 | 219 | 0.0 | 0.0 | 0.03 | 0.39 | 0.38 | 98 | 1017.0 |
| 20260831193039 | 71 | 219 | 0.0 | 0.0 | 0.04 | 0.39 | 0.38 | 98 | 1017.2 |
| 20260831191535 | 71 | 219 | 0.0 | 0.0 | 0.03 | 0.38 | 0.37 | 98 | 1017.3 |
| 20260831190038 | 71 | 213 | 0.0 | 2.0 | 0.02 | 0.37 | 0.36 | 98 | 1017.4 |
| 20260831184534 | 70 | 198 | 0.0 | 3.0 | 0.01 | 0.36 | 0.35 | 98 | 1017.5 |
| 20260831183032 | 70 | 200 | 0.0 | 4.0 | 0.01 | 0.35 | 0.34 | 98 | 1017.4 |
| 20260831181531 | 71 | 175 | 0.0 | 3.0 | 0.03 | 0.35 | 0.34 | 98 | 1017.6 |
| 20260831180029 | 70 | 174 | 0.0 | 3.0 | 0.03 | 0.35 | 0.34 | 98 | 1017.7 |
| 20260831174529 | 70 | 174 | 0.0 | 2.0 | 0.03 | 0.35 | 0.34 | 99 | 1017.4 |
| 20260831173027 | 70 | 173 | 0.0 | 2.0 | 0.02 | 0.34 | 0.33 | 99 | 1017.8 |
| 20260831171526 | 70 | 169 | 0.0 | 2.0 | 0.00 | 0.32 | 0.31 | 99 | 1017.9 |
| 20260831170024 | 70 | 178 | 2.0 | 6.0 | 0.00 | 0.32 | 0.31 | 100 | 1017.9 |
| 20260831164524 | 69 | 138 | 0.0 | 3.0 | 0.00 | 0.32 | 0.31 | 100 | 1018.0 |
| 20260831163022 | 69 | 160 | 1.0 | 6.0 | 0.00 | 0.32 | 0.31 | 100 | 1018.1 |
| 20260831161517 | 68 | 194 | 0.0 | 4.0 | 0.00 | 0.32 | 0.31 | 100 | 1018.1 |
| 20260831160014 | 67 | 176 | 0.0 | 2.0 | 0.00 | 0.32 | 0.31 | 100 | 1018.5 |
| 20260831154512 | 66 | 176 | 2.0 | 7.0 | 0.00 | 0.35 | 0.31 | 100 | 1018.6 |
| 20260831153009 | 66 | 148 | 1.0 | 3.0 | 0.00 | 0.35 | 0.31 | 99 | 1018.7 |
| 20260831151509 | 66 | 155 | 0.0 | 6.0 | 0.01 | 0.35 | 0.31 | 99 | 1018.8 |
| 20260831150009 | 66 | 110 | 1.0 | 7.0 | 0.01 | 0.35 | 0.31 | 99 | 1018.5 |
| 20260831144508 | 66 | 117 | 1.0 | 6.0 | 0.01 | 0.35 | 0.31 | 100 | 1018.4 |
| 20260831143007 | 66 | 103 | 1.0 | 3.0 | 0.02 | 0.35 | 0.31 | 99 | 1018.4 |
| 20260831141506 | 66 | 105 | 0.0 | 4.0 | 0.07 | 0.34 | 0.30 | 99 | 1018.5 |
| 20260831140007 | 66 | 103 | 1.0 | 4.0 | 0.10 | 0.34 | 0.30 | 99 | 1018.5 |
| 20260831134505 | 66 | 127 | 1.0 | 6.0 | 0.14 | 0.34 | 0.30 | 99 | 1018.5 |
| 20260831133003 | 65 | 104 | 1.0 | 4.0 | 0.15 | 0.33 | 0.28 | 99 | 1018.6 |
| 20260831131504 | 65 | 105 | 0.0 | 4.0 | 0.12 | 0.27 | 0.23 | 99 | 1018.8 |
| 20260831130001 | 65 | 84 | 1.0 | 6.0 | 0.09 | 0.24 | 0.20 | 99 | 1018.7 |
| 20260831124502 | 65 | 100 | 1.0 | 6.0 | 0.05 | 0.20 | 0.16 | 99 | 1018.7 |
| 20260831123059 | 65 | 91 | 1.0 | 6.0 | 0.03 | 0.18 | 0.14 | 99 | 1018.7 |
| 20260831121558 | 65 | 30 | 1.0 | 3.0 | 0.01 | 0.15 | 0.11 | 99 | 1018.8 |
| 20260831114555 | 65 | 169 | 0.0 | 2.0 | 0.02 | 0.15 | 0.11 | 99 | 1018.5 |
| 20260831113056 | 65 | 171 | 0.0 | 3.0 | 0.02 | 0.15 | 0.11 | 99 | 1018.6 |
| 20260831111610 | 65 | 171 | 0.0 | 0.0 | 0.02 | 0.14 | 0.10 | 99 | 1018.7 |
| 20260831110054 | 65 | 171 | 0.0 | 2.0 | 0.01 | 0.13 | 0.09 | 99 | 1018.7 |
| 20260831104553 | 65 | 174 | 0.0 | 3.0 | 0.01 | 0.13 | 0.09 | 99 | 1018.6 |
| 20260831103102 | 66 | 178 | 0.0 | 4.0 | 0.01 | 0.13 | 0.09 | 99 | 1018.7 |
| 20260831101556 | 66 | 186 | 1.0 | 3.0 | 0.00 | 0.12 | 0.08 | 99 | 1018.7 |
| 20260831100051 | 66 | 187 | 0.0 | 0.0 | 0.00 | 0.12 | 0.08 | 99 | 1018.8 |
| 20260831094550 | 66 | 187 | 0.0 | 1.0 | 0.00 | 0.12 | 0.08 | 99 | 1018.7 |
| 20260831093049 | 66 | 188 | 0.0 | 0.0 | 0.00 | 0.12 | 0.08 | 99 | 1018.6 |
| 20260831091559 | 66 | 188 | 0.0 | 2.0 | 0.00 | 0.12 | 0.08 | 99 | 1018.6 |
| 20260831090047 | 66 | 189 | 0.0 | 1.0 | 0.00 | 0.12 | 0.08 | 99 | 1018.6 |
| 20260831084545 | 66 | 189 | 0.0 | 3.0 | 0.00 | 0.12 | 0.08 | 99 | 1018.9 |
| 20260831083046 | 66 | 195 | 0.0 | 1.0 | 0.01 | 0.12 | 0.08 | 99 | 1019.0 |
| 20260831081544 | 66 | 195 | 0.0 | 1.0 | 0.02 | 0.12 | 0.08 | 99 | 1019.2 |
| 20260831080100 | 66 | 195 | 0.0 | 0.0 | 0.02 | 0.12 | 0.08 | 99 | 1019.3 |
| 20260831074541 | 66 | 195 | 0.0 | 0.0 | 0.03 | 0.12 | 0.08 | 99 | 1019.2 |
| 20260831073101 | 66 | 195 | 0.0 | 1.0 | 0.05 | 0.11 | 0.07 | 99 | 1019.4 |
| 20260831071550 | 66 | 195 | 0.0 | 2.0 | 0.04 | 0.10 | 0.06 | 99 | 1019.5 |
| 20260831070039 | 66 | 196 | 0.0 | 1.0 | 0.05 | 0.10 | 0.06 | 99 | 1019.5 |
| 20260831064541 | 66 | 196 | 0.0 | 1.0 | 0.04 | 0.09 | 0.05 | 99 | 1019.5 |
| 20260831063042 | 66 | 196 | 0.0 | 1.0 | 0.01 | 0.06 | 0.02 | 99 | 1019.8 |
| 20260831061535 | 66 | 196 | 0.0 | 1.0 | 0.01 | 0.06 | 0.02 | 99 | 1019.7 |
| 20260831060035 | 66 | 196 | 0.0 | 0.0 | 0.01 | 0.05 | 0.01 | 99 | 1019.8 |
| 20260831054533 | 66 | 196 | 0.0 | 0.0 | 0.01 | 0.05 | 0.01 | 99 | 1020.0 |
| 20260831053032 | 66 | 196 | 0.0 | 0.0 | 0.01 | 0.05 | 0.01 | 99 | 1019.8 |
| 20260831051536 | 66 | 196 | 0.0 | 0.0 | 0.01 | 0.05 | 0.01 | 99 | 1019.8 |
| 20260831050030 | 66 | 196 | 0.0 | 0.0 | 0.00 | 0.04 | 0.00 | 99 | 1020.0 |
| 20260831044529 | 66 | 196 | 0.0 | 0.0 | 0.00 | 0.04 | 0.00 | 99 | 1019.8 |
| 20260831043028 | 66 | 196 | 0.0 | 0.0 | 0.00 | 0.04 | 0.00 | 99 | 1019.8 |
| 20260831041528 | 66 | 196 | 0.0 | 0.0 | 0.00 | 0.04 | 0.00 | 98 | 1019.8 |
| 20260831040030 | 66 | 196 | 0.0 | 0.0 | 0.00 | 0.04 | 0.00 | 98 | 1019.9 |
| 20260831034528 | 66 | 196 | 0.0 | 0.0 | 0.00 | 0.04 | 0.04 | 98 | 1019.9 |
| 20260831033034 | 66 | 196 | 0.0 | 0.0 | 0.00 | 0.04 | 0.04 | 98 | 1020.0 |
| 20260831031523 | 65 | 196 | 0.0 | 1.0 | 0.00 | 0.04 | 0.04 | 98 | 1019.9 |
| 20260831030023 | 65 | 196 | 0.0 | 1.0 | 0.00 | 0.04 | 0.04 | 98 | 1020.1 |
| 20260831024528 | 65 | 196 | 0.0 | 2.0 | 0.00 | 0.04 | 0.04 | 98 | 1020.1 |
| 20260831023021 | 65 | 196 | 0.0 | 0.0 | 0.00 | 0.04 | 0.04 | 98 | 1020.2 |
| 20260831021540 | 64 | 197 | 0.0 | 1.0 | 0.00 | 0.04 | 0.04 | 98 | 1020.0 |
| 20260831020021 | 64 | 197 | 0.0 | 3.0 | 0.00 | 0.04 | 0.04 | 98 | 1020.2 |
| 20260831014520 | 64 | 198 | 0.0 | 0.0 | 0.00 | 0.04 | 0.04 | 98 | 1020.3 |
| 20260831013020 | 64 | 198 | 0.0 | 0.0 | 0.00 | 0.04 | 0.04 | 97 | 1020.2 |
| 20260831011536 | 65 | 198 | 0.0 | 2.0 | 0.00 | 0.04 | 0.04 | 97 | 1020.1 |
| 20260831010020 | 65 | 196 | 0.0 | 0.0 | 0.00 | 0.04 | 0.04 | 97 | 1020.2 |
| 20260831004520 | 65 | 196 | 0.0 | 0.0 | 0.00 | 0.04 | 0.04 | 97 | 1020.0 |
| 20260831003018 | 65 | 196 | 0.0 | 0.0 | 0.00 | 0.04 | 0.04 | 97 | 1019.7 |
| 20260831001533 | 65 | 196 | 0.0 | 0.0 | 0.00 | 0.04 | 0.04 | 97 | 1019.6 |
| 20260831000017 | 65 | 196 | 0.0 | 0.0 | 0.00 | 0.04 | 0.04 | 97 | 1019.4 |
| 20260830234523 | 65 | 196 | 0.0 | 0.0 | 0.00 | 0.04 | 0.04 | 96 | 1019.6 |
| 20260830233015 | 65 | 200 | 0.0 | 3.0 | 0.00 | 0.04 | 0.04 | 96 | 1019.4 |
| 20260830231515 | 65 | 251 | 0.0 | 0.0 | 0.00 | 0.04 | 0.04 | 95 | 1019.5 |
| 20260830230015 | 65 | 256 | 0.0 | 0.0 | 0.00 | 0.04 | 0.04 | 94 | 1019.5 |
| 20260830224514 | 66 | 256 | 0.0 | 0.0 | 0.00 | 0.04 | 0.04 | 94 | 1019.6 |
| 20260830223019 | 66 | 256 | 0.0 | 2.0 | 0.00 | 0.04 | 0.04 | 93 | 1019.6 |
| 20260830221513 | 66 | 256 | 0.0 | 1.0 | 0.00 | 0.04 | 0.04 | 93 | 1019.6 |
| 20260830220113 | 66 | 257 | 0.0 | 1.0 | 0.00 | 0.04 | 0.04 | 93 | 1019.6 |